SAUDISAT 5B (43833 NORAD) Tracking and Keplerian Element Data

This shows tracking and keplerian element data for the satellite.

Feedback or suggestion? Click here.




ElementValue
Catalog43833
NameSAUDISAT 5B
Epoch Orbit38848
Epoch Day354.25642191
Epoch Year2025
RAAN57.0548
Inclination97.344
Eccentricity0.001215
Argument of Perigee55.2386
Mean Anonmoly304.9995
Mean Motion15.26091839
Decay Rate4.244E-05
L11 43833U 18102C 25354.25642191 .00004244 00000+0 16709-3 0 9991
L22 43833 97.3440 57.0548 0012150 55.2386 304.9995 15.26091839388481



Live tracking and technical data element details for SAUDISAT 5B (NORAD 43833). SAUDISAT 5B can be tracked NOW for your location showing map with azimuth and elevation plus other details from your city location.







IsCatalogInMostPopularTable: catalog: 43833, numindb: 441
Update: records affected: 1



GetName: 43833 SAUDISAT 5B

Hit Count: updated at: Sat, 14 Mar 2026 02:11:10 GMT